DW9697 Weather Reports


time (UTC)temp
C
wind
direction
speed
KPH
gust
KPH
rain 1hr
cm
rain 24hr
cm
rain mn
cm
humidity
%
barometer
mb
20260901161521 22 106 0.0 4.8 0.00 0.51 0.00 69 1017.7
20260901160024 22 106 0.0 6.4 0.00 0.51 0.00 72 1017.7
20260901154519 22 48 0.0 4.8 0.00 0.51 0.00 74 1017.5
20260901153022 21 48 0.0 4.8 0.00 0.51 0.00 74 1017.4
20260901151518 20 236 0.0 3.2 0.00 0.51 0.00 80 1017.4
20260901150010 18 219 0.0 3.2 0.00 0.51 0.00 83 1017.4
20260901144506 18 219 1.6 4.8 0.00 0.51 0.00 83 1017.5
20260901143007 18 192 1.6 4.8 0.00 0.51 0.00 83 1017.4
20260901141530 18 277 0.0 0.0 0.00 0.51 0.00 82 1017.3
20260901140020 17 277 0.0 4.8 0.00 0.51 0.00 83 1017.1
20260901134503 16 286 0.0 8.0 0.00 0.51 0.00 84 1016.8
20260901133009 16 329 0.0 4.8 0.00 0.51 0.00 85 1016.6
20260901131515 16 321 1.6 8.0 0.00 0.51 0.00 86 1016.3
20260901130020 15 305 3.2 11.3 0.00 0.51 0.00 87 1016.2
20260901124526 15 298 4.8 11.3 0.00 0.51 0.00 88 1016.1
20260901123007 15 308 1.6 4.8 0.00 0.51 0.00 89 1016.1
20260901121510 15 310 0.0 0.0 0.00 0.51 0.00 88 1016.0
20260901120016 15 310 0.0 0.0 0.00 0.51 0.00 88 1015.9
20260901114522 15 310 0.0 3.2 0.00 0.51 0.00 88 1015.8
20260901113028 15 295 1.6 4.8 0.00 0.51 0.00 89 1015.9
20260901111508 15 306 1.6 4.8 0.00 0.51 0.00 89 1015.8
20260901110014 15 304 0.0 3.2 0.00 0.51 0.00 89 1015.9
20260901104519 16 304 0.0 3.2 0.00 0.51 0.00 89 1016.0
20260901103028 16 304 0.0 3.2 0.00 0.51 0.00 88 1016.0
20260901101529 16 304 0.0 4.8 0.00 0.51 0.00 88 1016.0
20260901100011 16 296 0.0 0.0 0.00 0.51 0.00 87 1015.9
20260901094518 16 321 1.6 4.8 0.00 0.51 0.00 88 1015.7
20260901093025 16 337 1.6 6.4 0.00 0.51 0.00 89 1015.8
20260901091530 16 327 4.8 6.4 0.00 0.51 0.00 90 1015.8
20260901090028 16 298 1.6 4.8 0.00 0.51 0.00 91 1016.0
20260901084513 16 315 1.6 3.2 0.00 0.53 0.00 90 1016.0
20260901083021 16 315 0.0 3.2 0.00 0.56 0.00 91 1016.1
20260901081535 16 315 0.0 0.0 0.00 0.56 0.00 91 1016.1
20260901080006 16 315 0.0 0.0 0.00 0.56 0.00 91 1016.1
20260901074513 16 315 0.0 1.6 0.00 0.56 0.00 90 1016.3
20260901073019 17 315 0.0 3.2 0.00 0.56 0.00 91 1016.3
20260901071502 17 315 0.0 4.8 0.00 0.56 0.00 91 1016.3
20260901070003 17 304 3.2 6.4 0.00 0.56 0.00 91 1016.3
20260901064510 17 119 0.0 0.0 0.00 0.56 0.56 91 1016.5
20260901063026 18 119 0.0 0.0 0.00 0.56 0.56 91 1016.5
20260901061520 18 119 0.0 0.0 0.00 0.56 0.56 91 1016.5
20260901060003 18 119 0.0 0.0 0.00 0.56 0.56 90 1016.8
20260901054518 18 119 0.0 0.0 0.00 0.56 0.56 90 1016.8
20260901053012 18 119 0.0 0.0 0.00 0.56 0.56 90 1016.8
20260901051516 18 119 0.0 0.0 0.00 0.56 0.56 90 1016.9
20260901050024 18 96 0.0 0.0 0.00 0.56 0.56 88 1016.8
20260901044507 18 96 0.0 0.0 0.00 0.56 0.56 88 1016.9
20260901043011 18 96 0.0 0.0 0.00 0.56 0.56 89 1016.9
20260901041515 18 96 0.0 3.2 0.00 0.56 0.56 88 1016.8
20260901040018 18 96 0.0 1.6 0.00 0.56 0.56 87 1016.8
20260901034529 18 96 0.0 1.6 0.00 0.56 0.56 86 1016.6
20260901033011 19 99 0.0 3.2 0.00 0.56 0.56 84 1016.5
20260901031521 19 236 0.0 0.0 0.00 0.56 0.56 84 1016.5
20260901030016 19 236 0.0 3.2 0.00 0.56 0.56 86 1016.3
20260901024524 19 236 0.0 1.6 0.00 0.56 0.56 86 1016.1
20260901023029 19 236 0.0 3.2 0.00 0.56 0.56 84 1015.9
20260901021509 19 236 0.0 4.8 0.00 0.56 0.56 84 1015.6
20260901020014 19 236 0.0 3.2 0.00 0.56 0.56 83 1015.4
20260901014525 19 236 1.6 3.2 0.00 0.56 0.56 84 1015.0
20260901013039 19 236 0.0 3.2 0.00 0.56 0.56 83 1014.8
20260901011537 19 236 0.0 1.6 0.00 0.56 0.56 83 1014.9
20260901010010 19 236 1.6 4.8 0.00 0.56 0.56 83 1014.9
20260901004519 19 236 0.0 1.6 0.00 0.56 0.56 83 1014.5
20260901003025 18 236 1.6 4.8 0.00 0.56 0.56 83 1014.7
20260901001533 18 173 1.6 3.2 0.00 0.56 0.56 83 1014.5
20260901000031 18 173 0.0 4.8 0.00 0.56 0.56 84 1014.6
20260831234515 18 173 1.6 6.4 0.00 0.56 0.56 85 1015.0
20260831233023 18 159 1.6 6.4 0.00 0.56 0.56 86 1015.1
20260831231527 18 129 1.6 4.8 0.00 0.56 0.56 85 1015.3
20260831230028 18 93 3.2 12.9 0.00 0.56 0.56 85 1015.4
20260831224532 19 106 4.8 11.3 0.00 0.56 0.56 85 1015.5
20260831223016 19 136 4.8 6.4 0.00 0.56 0.56 86 1015.6
20260831221524 18 52 3.2 16.1 0.00 0.56 0.56 86 1016.0
20260831220006 18 34 9.7 16.1 0.05 0.56 0.56 88 1016.3
20260831214516 18 56 4.8 11.3 0.08 0.56 0.56 91 1016.6
20260831213017 17 80 3.2 9.7 0.20 0.56 0.56 90 1017.0
20260831211524 17 52 0.0 0.0 0.33 0.56 0.56 91 1017.6
20260831210005 17 309 0.0 0.0 0.43 0.51 0.51 91 1018.0
20260831204505 17 309 0.0 1.6 0.43 0.48 0.48 90 1018.2
20260831203014 17 315 4.8 14.5 0.30 0.36 0.36 89 1018.4
20260831201518 17 340 14.5 22.5 0.18 0.23 0.23 88 1018.3
20260831200042 17 328 20.9 29.0 0.03 0.08 0.08 88 1018.4
20260831194503 18 326 20.9 38.6 0.00 0.05 0.05 82 1017.9
20260831193010 20 309 24.1 33.8 0.00 0.05 0.05 73 1018.2
20260831191513 21 294 19.3 30.6 0.00 0.05 0.05 72 1017.7
20260831190031 21 327 14.5 30.6 0.00 0.05 0.05 72 1017.5
20260831184528 23 309 14.5 24.1 0.00 0.05 0.05 65 1017.4
20260831183007 23 28 3.2 16.1 0.00 0.05 0.05 63 1017.4
20260831181510 23 44 8.0 14.5 0.00 0.05 0.05 65 1017.5
20260831180016 23 49 6.4 14.5 0.00 0.05 0.05 65 1017.8
20260831174523 23 46 6.4 9.7 0.00 0.05 0.05 64 1017.7
20260831173033 23 90 1.6 6.4 0.00 0.05 0.05 66 1017.9
20260831171507 22 96 1.6 6.4 0.00 0.05 0.05 67 1017.9
20260831170017 22 54 0.0 6.4 0.00 0.05 0.05 69 1017.9
20260831164520 22 54 0.0 6.4 0.00 0.05 0.05 72 1017.7
20260831163027 21 98 1.6 11.3 0.00 0.05 0.05 77 1017.5